TimeCST,TemperatureF,Dew PointF,Humidity,Sea Level PressureIn,VisibilityMPH,Wind Direction,Wind SpeedMPH,Gust SpeedMPH,PrecipitationIn,Events,Conditions,WindDirDegrees,DateUTC
12:53 AM,48.0,43.0,83,29.58,10.0,SSE,19.6,27.6,0.00,,Overcast,150,2012-12-15 06:53:00
1:49 AM,48.2,42.8,82,29.55,10.0,South,18.4,29.9,N/A,,Overcast,170,2012-12-15 07:49:00
1:53 AM,48.0,43.0,83,29.55,10.0,SSE,19.6,29.9,N/A,,Overcast,160,2012-12-15 07:53:00
2:53 AM,48.9,44.1,83,29.53,10.0,South,15.0,26.5,N/A,,Overcast,170,2012-12-15 08:53:00
3:53 AM,48.9,44.1,83,29.49,10.0,South,12.7,-,0.00,Rain,Light Rain,170,2012-12-15 09:53:00
4:43 AM,48.9,45.0,86,29.47,7.0,South,12.7,20.7,0.04,Rain,Light Rain,170,2012-12-15 10:43:00
4:53 AM,48.9,45.0,86,29.47,10.0,South,16.1,-,0.05,Rain,Light Rain,180,2012-12-15 10:53:00
5:06 AM,48.9,45.0,86,29.47,10.0,South,13.8,-,0.00,,Overcast,180,2012-12-15 11:06:00
5:14 AM,48.9,45.0,86,29.46,10.0,South,16.1,21.9,0.00,,Overcast,180,2012-12-15 11:14:00
5:53 AM,48.9,44.1,83,29.47,10.0,South,10.4,-,0.00,,Overcast,190,2012-12-15 11:53:00
6:53 AM,48.9,44.1,83,29.48,10.0,South,8.1,-,N/A,,Overcast,190,2012-12-15 12:53:00
7:53 AM,48.9,43.0,80,29.51,10.0,SSW,9.2,-,N/A,,Overcast,210,2012-12-15 13:53:00
8:53 AM,50.0,43.0,77,29.54,10.0,West,11.5,20.7,N/A,,Clear,270,2012-12-15 14:53:00
9:16 AM,50.0,44.1,80,29.55,10.0,West,11.5,23.0,N/A,,Mostly Cloudy,270,2012-12-15 15:16:00
9:37 AM,50.0,44.1,80,29.56,10.0,West,16.1,24.2,N/A,,Overcast,270,2012-12-15 15:37:00
9:53 AM,50.0,45.0,83,29.56,10.0,West,11.5,-,N/A,,Overcast,270,2012-12-15 15:53:00
10:34 AM,51.1,44.1,77,29.59,10.0,West,16.1,25.3,N/A,,Overcast,270,2012-12-15 16:34:00
10:53 AM,51.1,44.1,77,29.60,10.0,West,12.7,-,N/A,,Overcast,280,2012-12-15 16:53:00
11:53 AM,51.1,44.1,77,29.62,10.0,West,9.2,-,N/A,,Overcast,260,2012-12-15 17:53:00
12:53 PM,51.1,44.1,77,29.61,10.0,WSW,10.4,-,N/A,,Overcast,250,2012-12-15 18:53:00
1:53 PM,51.1,44.1,77,29.61,10.0,West,11.5,18.4,N/A,,Overcast,260,2012-12-15 19:53:00
2:53 PM,51.1,43.0,74,29.64,10.0,WSW,11.5,-,N/A,,Overcast,250,2012-12-15 20:53:00
3:53 PM,50.0,43.0,77,29.67,10.0,WSW,8.1,-,N/A,,Overcast,250,2012-12-15 21:53:00
4:53 PM,50.0,42.1,74,29.69,10.0,West,12.7,-,N/A,,Overcast,280,2012-12-15 22:53:00
5:53 PM,50.0,42.1,74,29.69,10.0,West,10.4,-,N/A,,Overcast,260,2012-12-15 23:53:00
6:53 PM,48.9,42.1,77,29.71,10.0,WNW,4.6,-,N/A,,Overcast,300,2012-12-16 00:53:00
7:53 PM,48.0,39.9,74,29.73,10.0,WNW,6.9,-,N/A,,Overcast,300,2012-12-16 01:53:00
8:31 PM,46.0,39.0,76,29.73,10.0,WNW,5.8,-,N/A,,Scattered Clouds,290,2012-12-16 02:31:00
8:53 PM,45.0,39.0,80,29.73,10.0,WNW,5.8,-,N/A,,Clear,300,2012-12-16 02:53:00
9:53 PM,43.0,39.0,86,29.73,10.0,Calm,Calm,-,N/A,,Clear,0,2012-12-16 03:53:00
10:53 PM,39.9,36.0,86,29.75,9.0,WNW,5.8,-,N/A,,Clear,290,2012-12-16 04:53:00
11:53 PM,37.9,36.0,93,29.75,6.0,Calm,Calm,-,N/A,,Clear,0,2012-12-16 05:53:00